Location: Campillo
(40.8621°N, 4.2488°W)
Time: 13:13:53
(UTC+00:00)

Cosmos 2278 Rocket - Pass Details

Date: 11 May 2021
Orbit: 842 x 845 km, 71.0° (Epoch: 13 June)

Event Time Altitude Azimuth Distance (km) Brightness Sun altitude
Exits shadow 21:58:34 - 219° (SW) 3,127 5.0 -23.2°
Reaches altitude 10° 22:00:24 10° 223° (SW) 2,453 4.5 -23.4°
Maximum altitude 22:05:51 50° 298° (WNW) 1,069 3.0 -24.0°
Drops below altitude 10° 22:11:20 10° 14° (NNE) 2,467 5.2 -24.6°
Sets 22:13:53 0° 19° (NNE) 3,406 5.9 -24.8°
